EHI
10 9 8 7 7 8 8 6 4 3 3 3 4 4 5 4 3 3 3 2 1 0 0 0 0 0 0 0 0 0 0 0 0 0 0 0 0 0
12 11 10 8 8 7 6 5 3 3 3 3 4 4 4 3 3 3 3 3 1 0 0 0 0 0 0 0 0 0 0 0 0 0 0 0 0 0
12 12 12 11 9 7 6 4 4 3 3 3 3 4 3 3 3 3 3 3 2 1 0 0 0 0 0 0 0 0 0 0 0 0 0 0 0 0
11 12 13 12 11 9 7 6 5 4 3 3 3 3 3 3 3 3 3 3 2 1 0 0 0 0 0 0 0 0 0 0 0 0 0 0 0 0
10 11 12 12 11 10 9 8 6 4 3 3 3 3 3 3 3 3 3 2 1 0 0 0 0 0 0 0 0 0 0 0 0 0 0 0 0 0
9 10 10 10 9 8 9 8 6 4 3 3 3 3 3 4 4 3 2 1 0 0 0 0 0 0 0 0 0 0 0 0 0 0 0 0 0 0
8 9 8 6 5 5 5 5 5 5 4 4 3 3 4 5 5 3 1 0 0 0 0 0 0 1 1 1 0 0 0 0 0 0 0 0 0 0
7 7 5 2 2 1 1 1 2 4 4 4 4 4 5 5 5 2 1 1 0 0 0 0 0 1 2 1 0 0 0 0 0 0 0 0 0 0
7 6 3 2 1 1 1 0 0 1 2 3 3 4 4 4 4 3 2 2 1 0 0 0 0 1 1 1 0 0 0 0 0 0 0 0 0 0
7 5 4 4 3 3 2 2 1 1 1 1 1 2 2 3 3 3 3 3 2 1 0 0 0 0 0 1 0 0 0 0 0 0 0 0 0 0
6 5 4 4 3 2 3 4 4 3 1 1 0 0 1 1 2 3 3 3 2 1 0 0 0 0 0 0 0 0 0 0 0 0 0 0 0 0
4 4 3 3 2 1 3 5 6 5 3 1 1 0 0 0 1 2 3 3 3 1 0 0 0 0 0 0 0 0 0 0 0 0 0 0 0 0
3 3 3 1 1 0 2 4 5 5 4 3 2 1 1 0 0 1 2 3 3 2 0 0 0 0 0 0 0 0 0 0 0 0 0 0 0 0
3 3 2 1 0 0 1 2 2 2 3 3 3 3 2 1 0 0 1 2 2 1 0 0 0 0 0 0 0 0 0 0 0 0 0 0 0 0
2 2 1 0 0 0 0 0 0 0 1 1 3 3 3 1 0 0 0 1 1 0 0 0 0 0 0 0 0 0 0 0 0 0 0 0 0 1
1 1 1 0 0 0 0 0 0 0 0 1 2 3 3 2 0 0 0 0 0 0 0 0 0 0 0 0 0 0 0 0 0 0 1 1 1 2
0 1 1 1 1 1 1 0 0 0 0 0 1 1 2 1 0 1 1 0 0 0 0 0 0 0 0 0 0 0 0 0 0 1 2 2 2 2
0 1 2 2 2 2 1 1 1 1 0 0 0 0 0 0 0 1 2 1 0 0 0 0 0 0 0 0 0 0 0 0 0 1 2 2 2 1
0 0 1 1 1 1 1 2 2 1 0 0 0 0 0 0 0 1 2 1 0 0 0 0 0 0 0 0 0 0 0 0 0 1 1 1 1 0
0 0 0 0 0 0 0 1 1 0 0 0 0 0 0 0 0 0 1 1 0 0 0 0 0 0 0 0 0 0 0 0 0 0 0 0 0 0
0 0 0 0 0 0 0 0 0 0 0 0 0 0 0 0 0 0 0 0 0 0 0 0 0 0 0 0 0 0 0 0 0 0 0 0 0 0
0 0 0 0 0 0 0 0 0 0 0 0 0 0 0 0 0 0 0 0 0 0 0 0 0 0 1 0 0 0 0 0 0 0 0 0 0 0
0 0 0 0 0 0 0 0 0 0 0 0 0 0 0 0 0 0 0 0 0 0 0 0 0 0 1 0 0 0 0 0 0 0 0 0 0 0
Wind_Speed
6 6 5 4 4 4 4 5 5 6 4 3 3 2 3 3 2 4 4 6 8 8 7 7 7 7 7 7 7 8 8 8 8 9 10 10 10 11
4 5 5 4 4 4 4 4 4 5 5 3 3 3 2 3 2 4 4 5 8 8 8 7 7 7 7 8 7 7 7 8 8 9 10 10 11 11
5 5 5 5 4 3 4 4 4 4 5 4 3 2 3 5 3 4 5 5 5 9 8 8 7 8 8 8 7 7 7 8 9 10 10 11 11 11
5 5 5 4 5 4 3 4 4 4 5 6 4 4 4 4 4 5 5 4 4 7 9 9 9 8 8 8 8 8 8 8 9 10 10 11 11 11
5 5 5 5 5 4 5 4 4 4 4 5 5 3 3 3 4 5 5 4 5 5 9 9 9 9 8 9 9 9 9 9 9 9 10 10 10 10
4 5 5 5 5 5 5 5 5 5 4 5 5 4 3 3 4 5 4 4 4 5 4 5 8 10 10 10 10 10 10 10 10 10 10 10 10 10
4 4 4 4 3 4 4 4 4 4 4 4 5 4 3 3 3 4 4 4 4 4 4 5 5 6 7 10 12 11 10 10 10 11 11 11 11 11
4 4 5 5 5 5 4 4 5 5 5 5 5 4 4 4 3 4 5 5 5 3 4 5 5 5 5 6 8 10 11 11 11 11 11 11 11 11
4 4 5 3 5 5 6 7 7 7 7 7 7 6 5 4 5 6 5 6 6 5 5 6 5 5 5 5 7 9 10 11 11 11 11 11 11 11
5 5 5 4 3 4 5 5 5 5 6 7 6 6 5 4 5 6 6 6 7 6 5 6 5 5 5 5 7 9 10 10 11 11 11 11 11 11
5 4 5 4 2 3 5 5 5 5 6 7 6 6 5 5 5 5 5 6 6 5 4 5 6 6 6 6 5 10 10 10 10 11 11 11 10 10
4 5 4 4 3 4 6 6 6 6 5 5 6 7 7 7 8 7 6 6 6 6 3 4 5 5 6 5 4 4 7 9 10 10 10 10 9 7
4 4 3 5 5 6 7 6 6 6 7 6 6 5 5 5 5 6 6 7 7 6 4 4 5 6 6 5 4 4 5 4 5 6 9 10 10 9
5 4 2 5 5 7 7 5 5 6 6 6 5 5 5 4 4 5 6 7 7 8 6 5 5 5 6 6 5 4 4 4 4 4 5 8 9 10
4 2 3 6 7 8 9 8 7 6 6 6 6 5 5 4 5 5 6 7 8 7 6 6 6 6 6 6 6 5 5 4 4 4 4 4 5 5
4 4 7 8 8 7 6 7 6 5 5 6 6 5 4 4 5 5 5 5 6 6 6 7 7 7 7 7 6 6 5 4 3 4 4 4 4 5
3 4 4 4 5 4 4 5 5 5 6 6 6 5 5 5 5 4 5 5 6 6 5 5 6 6 7 7 6 6 5 5 4 4 4 5 4 4
5 5 4 5 5 4 5 4 5 5 5 5 5 5 5 5 5 4 5 6 6 6 5 4 4 4 5 6 6 7 6 5 4 4 5 5 5 4
6 5 4 4 4 4 4 4 4 4 4 4 5 5 5 5 5 5 6 6 6 6 5 5 5 5 7 7 5 6 6 5 4 4 4 5 5 4
5 4 4 3 4 4 4 4 4 4 4 4 5 5 5 6 6 6 6 6 6 6 6 5 5 5 7 6 5 3 6 6 5 5 4 4 4 3
3 3 3 3 3 3 3 3 4 4 4 5 5 5 5 6 6 6 6 5 7 7 7 5 3 4 5 4 5 5 3 5 4 4 5 5 4 5
3 3 3 3 3 3 3 3 3 4 4 5 5 5 5 6 6 7 6 6 6 6 6 5 3 4 5 6 6 5 4 3 4 3 3 4 4 4
3 3 3 3 3 3 3 3 4 4 4 4 4 4 5 5 6 6 6 6 6 6 5 5 4 4 5 5 5 5 6 5 4 4 4 5 6 5
Wind_Direction
231 230 245 245 250 257 257 263 273 275 263 239 245 232 241 242 207 244 240 189 204 216 219 220 221 222 223 225 229 230 226 224 226 229 229 230 235 240
240 249 253 256 254 255 261 261 265 274 280 264 257 253 265 270 203 251 251 185 200 207 211 213 215 218 222 221 223 220 223 226 229 230 230 231 234 237
239 241 244 261 261 258 255 261 262 263 267 275 273 268 258 269 267 260 249 241 210 191 201 206 211 215 218 218 220 222 224 228 231 231 231 233 235 236
239 245 248 243 242 254 258 257 261 268 266 270 271 269 260 258 260 263 262 255 254 181 192 203 210 213 213 218 224 226 228 231 233 233 233 235 237 239
237 242 244 243 245 247 250 258 260 257 260 267 269 271 272 272 267 261 260 262 263 203 192 200 205 208 213 219 225 227 229 232 233 234 234 234 237 238
238 238 239 239 244 246 244 248 256 262 258 263 269 266 262 261 260 261 260 248 258 255 227 214 202 205 214 216 220 224 228 231 233 235 235 234 234 234
233 235 232 234 252 257 263 259 256 256 255 257 261 263 264 271 266 276 277 273 255 252 248 239 220 223 216 215 216 219 224 228 232 234 234 233 232 232
238 238 227 210 212 214 239 256 266 260 264 266 265 268 271 272 276 279 282 279 277 256 261 259 245 242 236 233 201 204 217 225 229 231 232 232 231 231
237 242 245 220 217 223 214 217 230 239 251 263 272 280 281 282 284 276 276 285 290 293 275 270 260 255 249 234 187 202 216 224 228 230 230 230 229 229
229 233 237 237 229 243 238 230 235 233 235 243 260 269 277 288 276 274 282 274 269 261 259 267 269 268 266 255 191 201 213 221 226 228 228 227 227 227
229 230 239 233 187 241 244 240 244 245 225 225 241 255 268 266 269 268 264 265 268 266 251 261 272 273 264 255 216 196 210 218 224 226 226 224 224 226
223 216 211 227 187 223 242 246 250 258 262 231 222 230 237 232 224 241 257 264 273 273 256 258 265 271 266 251 245 214 215 214 217 221 221 219 212 224
239 234 193 171 195 219 241 249 255 269 264 252 242 239 236 236 232 232 240 251 262 268 271 259 265 257 259 270 264 252 246 232 217 217 213 209 206 215
248 248 179 170 208 226 235 246 246 255 257 252 247 246 245 246 248 246 239 242 250 259 268 266 263 264 264 264 266 260 249 242 238 237 227 195 204 211
255 263 236 212 220 230 225 227 235 242 249 251 249 249 251 251 252 245 241 238 240 248 247 248 253 257 261 265 269 268 264 252 240 239 234 218 209 204
246 220 212 220 231 245 232 217 229 243 253 258 258 257 255 247 242 245 246 244 245 244 235 237 244 252 255 262 265 267 264 259 244 241 244 235 228 226
249 249 245 235 232 239 245 241 235 232 236 247 254 258 257 257 254 250 250 253 253 253 244 230 232 238 254 261 262 262 260 257 250 245 242 240 235 234
235 245 250 253 250 254 258 254 244 242 246 251 253 252 254 254 253 249 247 248 254 257 256 250 237 235 245 241 245 262 264 260 256 239 240 244 239 229
228 245 253 261 268 269 266 266 266 261 259 251 253 252 250 252 250 247 247 249 251 254 252 249 243 241 248 251 230 223 256 262 256 247 242 246 247 235
235 249 257 262 262 265 267 268 270 267 260 257 256 257 254 252 252 250 248 250 256 257 253 244 240 243 252 264 272 242 218 251 253 253 253 252 246 221
254 261 264 267 270 269 268 270 273 270 268 269 263 261 260 258 258 260 259 256 257 257 257 255 250 249 259 262 261 257 238 217 250 261 259 254 247 239
271 272 276 282 282 279 277 272 270 269 269 267 269 270 268 263 259 258 260 261 259 260 265 263 234 233 241 244 251 256 254 232 205 217 256 264 267 262
277 279 279 276 271 271 279 279 275 273 276 279 280 277 275 273 269 263 261 263 266 264 262 258 248 241 246 243 247 255 255 248 233 218 223 214 217 235